RSD567 UNKL-UNNT

Flight info

Callsign RSD567
Flight time N/A
Altitude 30000
Route APRUS B926 NATIR
Aircraft T214/M-SDE3GHIJ2J3J5M1RVWXY/LB2D1

Departure

Time 2026-05-01 14:54
Airport Krasnoyarsk International Airport (UNKL)

Arrival

Time N/A
Airport Novosibirsk Tolmachevo Airport (UNNT)
Time Latitude Longitude Altitude Speed Heading
2026-05-01 14:36 56.18128 92.47259 948 ft 0 kts 21°
2026-05-01 14:45 56.18153 92.47279 948 ft 9 kts 30°
2026-05-01 14:45 56.18145 92.47478 948 ft 11 kts 113°
2026-05-01 14:45 56.18115 92.47607 948 ft 12 kts 112°
2026-05-01 14:46 56.18074 92.47775 948 ft 17 kts 112°
2026-05-01 14:46 56.17939 92.47943 948 ft 13 kts 205°
2026-05-01 14:46 56.17851 92.47938 948 ft 10 kts 121°
2026-05-01 14:47 56.17814 92.48085 948 ft 15 kts 112°
2026-05-01 14:47 56.17763 92.48299 948 ft 21 kts 113°
2026-05-01 14:47 56.17695 92.48580 948 ft 24 kts 112°
2026-05-01 14:48 56.17572 92.49095 948 ft 25 kts 113°
2026-05-01 14:48 56.17493 92.49429 948 ft 32 kts 112°
2026-05-01 14:48 56.17348 92.50037 948 ft 17 kts 113°
2026-05-01 14:49 56.17267 92.50361 948 ft 6 kts 129°
2026-05-01 14:49 56.17186 92.50388 948 ft 1 kts 192°
2026-05-01 14:50 56.17182 92.50387 948 ft 0 kts 199°
2026-05-01 14:51 56.17099 92.50323 948 ft 9 kts 208°
2026-05-01 14:52 56.17085 92.50199 948 ft 0 kts 292°
2026-05-01 14:53 56.17085 92.50198 948 ft 0 kts 292°
2026-05-01 14:53 56.17198 92.49715 948 ft 82 kts 293°
2026-05-01 14:53 56.17525 92.48350 961 ft 152 kts 291°
2026-05-01 14:54 56.17972 92.46448 1176 ft 178 kts 291°
2026-05-01 14:54 56.18500 92.44244 1513 ft 209 kts 292°
2026-05-01 14:54 56.19060 92.41927 2654 ft 190 kts 292°
2026-05-01 14:54 56.19547 92.39874 3614 ft 187 kts 292°
2026-05-01 14:55 56.20109 92.37497 4098 ft 228 kts 292°
2026-05-01 14:55 56.20759 92.34770 4924 ft 254 kts 292°
2026-05-01 14:55 56.21466 92.31802 5718 ft 268 kts 292°
2026-05-01 14:55 56.21938 92.28569 6383 ft 269 kts 271°
2026-05-01 14:56 56.21668 92.25283 7088 ft 269 kts 251°
2026-05-01 14:56 56.21021 92.22144 7822 ft 271 kts 249°
2026-05-01 14:56 56.20335 92.19032 8514 ft 273 kts 248°
2026-05-01 14:56 56.19623 92.15847 9221 ft 276 kts 248°
2026-05-01 14:57 56.18915 92.12687 9916 ft 278 kts 248°
2026-05-01 14:57 56.17462 92.06216 11320 ft 284 kts 248°
2026-05-01 14:57 56.16720 92.02917 12027 ft 287 kts 248°
2026-05-01 14:58 56.15978 91.99625 12724 ft 290 kts 248°
2026-05-01 14:58 56.15213 91.96238 13448 ft 293 kts 248°
2026-05-01 14:58 56.14451 91.92874 14230 ft 295 kts 248°
2026-05-01 14:58 56.13678 91.89466 15010 ft 299 kts 248°
2026-05-01 14:59 56.12897 91.86031 15785 ft 303 kts 248°
2026-05-01 14:59 56.12110 91.82573 16557 ft 306 kts 248°
2026-05-01 14:59 56.11305 91.79050 17333 ft 310 kts 248°
2026-05-01 14:59 56.10482 91.75449 18122 ft 316 kts 248°
2026-05-01 15:00 56.08770 91.67975 19762 ft 338 kts 248°
2026-05-01 15:00 56.07865 91.64036 20581 ft 348 kts 248°
2026-05-01 15:00 56.06945 91.60043 21418 ft 355 kts 248°
2026-05-01 15:01 56.05992 91.55911 22343 ft 360 kts 248°
2026-05-01 15:01 56.05041 91.51801 23326 ft 362 kts 248°
2026-05-01 15:01 56.04086 91.47686 24262 ft 364 kts 248°
2026-05-01 15:01 56.03109 91.43488 25047 ft 369 kts 248°
2026-05-01 15:02 56.02121 91.39260 25769 ft 376 kts 248°
2026-05-01 15:02 56.01447 91.36369 26262 ft 379 kts 248°
2026-05-01 15:02 56.00101 91.30606 27249 ft 385 kts 248°
2026-05-01 15:02 55.99062 91.26172 27988 ft 389 kts 248°
2026-05-01 15:03 55.98162 91.21640 28680 ft 393 kts 256°
2026-05-01 15:03 55.97578 91.16888 29425 ft 395 kts 258°
2026-05-01 15:03 55.96987 91.12084 29725 ft 409 kts 258°
2026-05-01 15:03 55.96346 91.06995 29891 ft 425 kts 257°
2026-05-01 15:04 55.95675 91.01804 30261 ft 436 kts 257°
2026-05-01 15:04 55.94278 90.91212 30177 ft 447 kts 257°
2026-05-01 15:04 55.93553 90.85756 30497 ft 455 kts 257°
2026-05-01 15:05 55.92828 90.80291 30492 ft 460 kts 257°
2026-05-01 15:05 55.92094 90.74755 30512 ft 446 kts 257°
2026-05-01 15:05 55.91406 90.69570 30349 ft 423 kts 257°
2026-05-01 15:05 55.90742 90.64558 29934 ft 408 kts 257°
2026-05-01 15:06 55.90117 90.59834 29927 ft 386 kts 257°
2026-05-01 15:06 55.88893 90.50561 29980 ft 387 kts 258°
2026-05-01 15:07 55.87671 90.41164 29972 ft 394 kts 258°
2026-05-01 15:07 55.86418 90.31450 30029 ft 414 kts 257°
2026-05-01 15:08 55.85139 90.21533 29966 ft 411 kts 257°
2026-05-01 15:08 55.83881 90.11670 29966 ft 410 kts 258°
2026-05-01 15:09 55.82630 90.01820 29968 ft 410 kts 258°
2026-05-01 15:09 55.81388 89.91967 29968 ft 411 kts 258°
2026-05-01 15:10 55.80150 89.82075 29967 ft 411 kts 258°
2026-05-01 15:10 55.78312 89.67304 29967 ft 410 kts 258°
2026-05-01 15:11 55.76480 89.52450 29968 ft 411 kts 259°
2026-05-01 15:12 55.75277 89.42607 29968 ft 410 kts 259°
2026-05-01 15:12 55.73486 89.27797 29969 ft 410 kts 258°
2026-05-01 15:14 55.70545 89.03200 29968 ft 409 kts 258°
2026-05-01 15:14 55.68628 88.88448 29969 ft 410 kts 256°
2026-05-01 15:15 55.65776 88.68954 29970 ft 410 kts 256°
2026-05-01 15:16 55.62936 88.49464 29967 ft 410 kts 256°
2026-05-01 15:18 55.59437 88.25150 29968 ft 410 kts 256°
2026-05-01 15:19 55.56659 88.05656 29968 ft 411 kts 256°
2026-05-01 15:19 55.54596 87.90987 29968 ft 410 kts 257°
2026-05-01 15:20 55.52561 87.76378 29968 ft 410 kts 257°
2026-05-01 15:21 55.51226 87.66746 30533 ft 411 kts 257°
2026-05-01 15:21 55.50549 87.61879 30400 ft 400 kts 257°
2026-05-01 15:21 55.49906 87.57224 30162 ft 384 kts 257°
2026-05-01 15:21 55.49294 87.52759 29966 ft 368 kts 256°
2026-05-01 15:22 55.47999 87.44404 29569 ft 341 kts 255°
2026-05-01 15:22 55.47362 87.40453 29385 ft 332 kts 255°
2026-05-01 15:22 55.46738 87.36588 29243 ft 329 kts 255°
2026-05-01 15:23 55.46109 87.32671 28994 ft 335 kts 254°
2026-05-01 15:23 55.45480 87.28750 28681 ft 337 kts 254°
2026-05-01 15:23 55.44839 87.24761 28356 ft 337 kts 254°
2026-05-01 15:23 55.44208 87.20821 27956 ft 336 kts 254°
2026-05-01 15:24 55.43585 87.16917 27554 ft 333 kts 254°
2026-05-01 15:24 55.42968 87.13052 27147 ft 329 kts 254°
2026-05-01 15:24 55.42349 87.09176 26823 ft 323 kts 255°
2026-05-01 15:24 55.41757 87.05464 26856 ft 315 kts 255°
2026-05-01 15:25 55.41167 87.01756 26763 ft 322 kts 255°
2026-05-01 15:25 55.40559 86.97920 26539 ft 325 kts 255°
2026-05-01 15:25 55.39956 86.94112 26327 ft 325 kts 255°
2026-05-01 15:25 55.39356 86.90311 26100 ft 323 kts 255°
2026-05-01 15:26 55.38758 86.86520 25869 ft 321 kts 255°
2026-05-01 15:26 55.38161 86.82728 25477 ft 323 kts 255°
2026-05-01 15:26 55.37566 86.78934 25044 ft 321 kts 255°
2026-05-01 15:26 55.36980 86.75191 24598 ft 319 kts 255°
2026-05-01 15:27 55.36401 86.71485 24119 ft 317 kts 255°
2026-05-01 15:27 55.35827 86.67807 23858 ft 307 kts 255°
2026-05-01 15:27 55.35266 86.64215 23641 ft 306 kts 255°
2026-05-01 15:28 55.34144 86.56995 22637 ft 309 kts 255°
2026-05-01 15:28 55.33580 86.53354 22141 ft 309 kts 255°
2026-05-01 15:28 55.33023 86.49747 21650 ft 308 kts 255°
2026-05-01 15:29 55.31916 86.42578 20784 ft 303 kts 255°
2026-05-01 15:29 55.31371 86.39035 20579 ft 292 kts 255°
2026-05-01 15:29 55.30326 86.32224 20460 ft 292 kts 255°
2026-05-01 15:30 55.29455 86.26518 20297 ft 295 kts 255°
2026-05-01 15:31 55.27172 86.11489 20143 ft 295 kts 256°
2026-05-01 15:31 55.26715 86.04391 20055 ft 294 kts 265°
2026-05-01 15:32 55.26351 85.97268 19953 ft 294 kts 264°
2026-05-01 15:32 55.25960 85.90169 19852 ft 293 kts 264°
2026-05-01 15:33 55.25361 85.79520 19700 ft 293 kts 264°
2026-05-01 15:34 55.24768 85.68924 19636 ft 292 kts 264°